Home   Weather   Nanaimo   Past weeks

Flag for Canada Past Weather in Nanaimo, British Columbia, Canada — Yesterday and Last 2 Weeks

Now
64 °F

Mild.


Feels Like: 64 °F
Forecast: 58 / 75 °F
Wind: No wind

Location: Entrance Island

Current Time: May 29, 2017 at 2:44:20 am

Latest Report: May 29, 2017 at 2:00 am


Visibility: N/A

Pressure: 30.00 "Hg

Humidity: 59%

Dew Point: 49 °F

Location of NanaimoLocation

Past Weather in Nanaimo — Graph

°F

Nanaimo Temperature Yesterday

Maximum temperature yesterday: 69 °F (at 4:00 pm)
Minimum temperature yesterday: 58 °F (at 4:00 am)
Average temperature yesterday: 64 °F

High & Low Weather Summary for the Past Weeks

 TemperatureHumidityPressure
High69 °F (May 28, 4:00 pm)96% (May 18, 7:00 am)30.27 "Hg (May 18, 7:00 am)
Low42 °F (May 16, 7:00 am)28% (May 23, 6:00 pm)29.52 "Hg (May 16, 6:00 am)
Average56 °F77%30.01 "Hg
* Reported May 14 1:00 am — May 29 1:00 am, Nanaimo. Weather by CustomWeather, © 2017

Note: Actual official high and low records may vary slightly from our data, if they occured in-between our weather recording intervals... More about our weather records

Advertising

Nanaimo Weather History for the Previous 24 Hours

Scroll right to see more
 ConditionsComfort  
Time TempWeatherWind HumidityBarometerVisibility
1:00 am
Mon, May 29
65 °FMild.3 mph58%30.00 "HgN/A
12:00 am64 °FMild.5 mph67%30.00 "HgN/A
11:00 pm
Sun, May 28
64 °FMild.2 mph64%30.00 "HgN/A
10:00 pm65 °FMild.5 mph57%30.00 "HgN/A
9:00 pm64 °FMild.2 mph78%30.00 "HgN/A
8:00 pm68 °FMild.2 mph67%30.01 "HgN/A
7:00 pm68 °FMild.3 mph72%30.01 "HgN/A
6:00 pm68 °FMild.3 mph70%30.03 "HgN/A
5:00 pm67 °FMild.3 mph69%30.05 "HgN/A
4:00 pm69 °FMild.6 mph63%30.06 "HgN/A
3:00 pm67 °FMild.5 mph66%30.07 "HgN/A
2:00 pm68 °FMild.6 mph67%30.08 "HgN/A
1:00 pm68 °FMild.2 mph65%30.09 "HgN/A
12:00 pm66 °FMild.3 mph69%30.10 "HgN/A
11:00 am65 °FMild.2 mph72%30.11 "HgN/A
10:00 am66 °FMild.1 mph71%30.11 "HgN/A
9:00 am67 °FMild.1 mph63%30.11 "HgN/A
8:00 am59 °FCool.3 mph82%30.11 "HgN/A
7:00 am59 °FCool.2 mph81%30.10 "HgN/A
6:00 am59 °FCool.1 mph82%30.09 "HgN/A
5:00 am61 °FCool.3 mph71%30.07 "HgN/A
4:00 am58 °FCool.7 mph82%30.07 "HgN/A
3:00 am61 °FCool.8 mph77%30.07 "HgN/A
2:00 am59 °FCool.2 mph78%30.06 "HgN/A
Weather by CustomWeather, © 2017

See weather overviewHow to use our weather pages